Location: �clusier
(49.9361°N, 2.7869°E)
Time: 06:34:30
(UTC+00:00)

USA 215 - Pass Details

Date: 16 June 2021
Orbit: 1100 x 1107 km, 123.0° (Epoch: 22 June)

Event Time Altitude Azimuth Distance (km) Brightness Sun altitude
Rises 23:19:09 0° 57° (ENE) 3,924 6.5 -16.4°
Reaches altitude 10° 23:21:38 10° 58° (ENE) 2,964 5.9 -16.4°
Maximum altitude 23:28:12 87° 330° (NNW) 1,108 3.3 -16.5°
Drops below altitude 10° 23:34:45 10° 242° (WSW) 2,955 5.3 -16.6°
Sets 23:37:13 0° 242° (WSW) 3,912 5.9 -16.6°
